QPF
0.00 0.00 0.00 0.00 0.00 0.00 0.00 0.00 0.01 0.02 0.00 0.01 0.02 0.03 0.00 0.00 0.00 0.00 0.00 0.00 0.00 0.00 0.00 0.00 0.00 0.00 0.00 0.00 0.00 0.00 0.00 0.00 0.00 0.00 0.00 0.00 0.00 0.00 0.00 0.00 0.00 0.00 0.00 0.00 0.00
0.00 0.00 0.00 0.00 0.00 0.00 0.00 0.00 0.01 0.01 0.01 0.01 0.01 0.03 0.04 0.00 0.00 0.00 0.00 0.00 0.00 0.00 0.00 0.00 0.00 0.00 0.00 0.00 0.00 0.00 0.00 0.00 0.00 0.00 0.00 0.00 0.00 0.00 0.00 0.00 0.00 0.00 0.00 0.00 0.00
0.00 0.00 0.00 0.00 0.00 0.00 0.00 0.00 0.00 0.01 0.02 0.01 0.00 0.02 0.05 0.03 0.02 0.00 0.00 0.00 0.00 0.00 0.00 0.00 0.00 0.00 0.00 0.00 0.00 0.00 0.00 0.00 0.00 0.00 0.00 0.00 0.00 0.00 0.00 0.00 0.00 0.00 0.00 0.00 0.00
0.00 0.00 0.00 0.01 0.00 0.00 0.00 0.00 0.01 0.00 0.02 0.02 0.01 0.02 0.05 0.06 0.01 0.00 0.00 0.00 0.00 0.00 0.00 0.00 0.00 0.00 0.00 0.00 0.00 0.00 0.00 0.00 0.00 0.00 0.00 0.00 0.00 0.00 0.00 0.00 0.00 0.00 0.00 0.00 0.00
0.00 0.00 0.00 0.00 0.00 0.00 0.00 0.00 0.01 0.01 0.01 0.04 0.03 0.04 0.06 0.03 0.00 0.00 0.00 0.00 0.00 0.00 0.00 0.00 0.00 0.00 0.00 0.00 0.00 0.00 0.00 0.00 0.00 0.00 0.00 0.00 0.00 0.00 0.00 0.00 0.00 0.00 0.00 0.00 0.00
0.00 0.00 0.00 0.00 0.00 0.00 0.00 0.00 0.01 0.02 0.01 0.04 0.05 0.04 0.02 0.01 0.00 0.00 0.00 0.00 0.00 0.00 0.00 0.00 0.00 0.00 0.00 0.00 0.00 0.00 0.00 0.00 0.00 0.00 0.00 0.00 0.00 0.00 0.00 0.00 0.00 0.00 0.00 0.00 0.00
0.00 0.00 0.00 0.00 0.00 0.00 0.01 0.01 0.01 0.01 0.02 0.01 0.08 0.07 0.04 0.00 0.00 0.00 0.00 0.00 0.00 0.00 0.00 0.00 0.00 0.00 0.00 0.00 0.00 0.00 0.00 0.00 0.00 0.00 0.00 0.00 0.00 0.00 0.00 0.00 0.00 0.00 0.00 0.00 0.00
0.01 0.00 0.00 0.01 0.01 0.00 0.01 0.02 0.01 0.01 0.03 0.04 0.07 0.11 0.04 0.00 0.01 0.00 0.00 0.00 0.00 0.00 0.00 0.00 0.00 0.00 0.00 0.00 0.00 0.00 0.00 0.00 0.00 0.00 0.00 0.00 0.00 0.00 0.00 0.00 0.00 0.00 0.00 0.00 0.00
0.03 0.01 0.00 0.01 0.01 0.02 0.02 0.04 0.05 0.02 0.04 0.03 0.06 0.07 0.04 0.01 0.01 0.01 0.00 0.00 0.00 0.00 0.00 0.00 0.00 0.00 0.00 0.00 0.00 0.00 0.00 0.00 0.00 0.00 0.00 0.00 0.00 0.00 0.00 0.00 0.00 0.00 0.00 0.00 0.00
0.02 0.01 0.00 0.01 0.01 0.04 0.10 0.12 0.11 0.10 0.09 0.07 0.03 0.06 0.04 0.00 0.01 0.04 0.03 0.02 0.00 0.00 0.00 0.00 0.00 0.00 0.00 0.00 0.00 0.00 0.00 0.00 0.00 0.00 0.00 0.00 0.00 0.00 0.00 0.00 0.00 0.00 0.00 0.00 0.00
0.02 0.02 0.01 0.01 0.01 0.04 0.13 0.14 0.08 0.06 0.04 0.01 0.01 0.01 0.00 0.01 0.05 0.05 0.06 0.06 0.02 0.01 0.00 0.00 0.00 0.00 0.00 0.00 0.00 0.00 0.00 0.00 0.00 0.00 0.00 0.00 0.00 0.00 0.00 0.00 0.00 0.00 0.00 0.00 0.00
0.03 0.01 0.01 0.01 0.01 0.07 0.09 0.03 0.01 0.01 0.03 0.02 0.01 0.01 0.03 0.04 0.03 0.05 0.07 0.04 0.02 0.01 0.01 0.01 0.00 0.00 0.00 0.00 0.00 0.00 0.00 0.00 0.00 0.00 0.00 0.00 0.00 0.00 0.00 0.00 0.00 0.00 0.00 0.00 0.00
0.02 0.02 0.01 0.02 0.04 0.05 0.06 0.04 0.01 0.02 0.04 0.01 0.00 0.00 0.02 0.03 0.05 0.03 0.03 0.01 0.01 0.01 0.00 0.00 0.00 0.00 0.00 0.01 0.01 0.00 0.00 0.00 0.00 0.00 0.00 0.00 0.00 0.00 0.00 0.00 0.00 0.00 0.00 0.00 0.00
0.02 0.01 0.02 0.03 0.04 0.02 0.05 0.06 0.06 0.06 0.06 0.03 0.03 0.01 0.05 0.05 0.03 0.03 0.02 0.01 0.01 0.01 0.01 0.00 0.00 0.00 0.00 0.00 0.01 0.00 0.00 0.00 0.00 0.00 0.00 0.00 0.00 0.00 0.00 0.00 0.00 0.00 0.00 0.00 0.00
0.01 0.01 0.02 0.01 0.00 0.01 0.00 0.04 0.05 0.08 0.03 0.00 0.02 0.01 0.00 0.02 0.02 0.01 0.01 0.02 0.01 0.00 0.01 0.00 0.00 0.00 0.00 0.00 0.00 0.00 0.00 0.00 0.00 0.00 0.00 0.00 0.00 0.00 0.00 0.00 0.00 0.00 0.00 0.00 0.00
0.02 0.02 0.04 0.04 0.02 0.00 0.01 0.05 0.11 0.08 0.03 0.03 0.02 0.02 0.02 0.01 0.01 0.01 0.02 0.02 0.01 0.01 0.00 0.01 0.00 0.00 0.00 0.00 0.00 0.00 0.00 0.00 0.00 0.00 0.00 0.00 0.00 0.00 0.00 0.00 0.00 0.00 0.00 0.00 0.00
0.03 0.04 0.03 0.02 0.03 0.03 0.04 0.06 0.07 0.03 0.00 0.01 0.02 0.02 0.01 0.00 0.00 0.01 0.02 0.01 0.00 0.01 0.00 0.00 0.02 0.01 0.00 0.03 0.02 0.01 0.01 0.00 0.00 0.00 0.00 0.00 0.00 0.00 0.00 0.00 0.00 0.00 0.00 0.00 0.00
0.04 0.06 0.05 0.02 0.02 0.03 0.07 0.02 0.01 0.00 0.00 0.00 0.00 0.02 0.01 0.00 0.00 0.00 0.00 0.00 0.00 0.00 0.00 0.00 0.01 0.01 0.01 0.00 0.00 0.00 0.01 0.00 0.00 0.00 0.00 0.00 0.00 0.00 0.00 0.00 0.00 0.00 0.00 0.00 0.00
0.06 0.08 0.05 0.04 0.03 0.05 0.04 0.02 0.00 0.00 0.00 0.00 0.01 0.02 0.02 0.01 0.00 0.00 0.00 0.00 0.00 0.00 0.00 0.00 0.00 0.00 0.01 0.01 0.00 0.01 0.01 0.00 0.00 0.00 0.00 0.00 0.00 0.00 0.00 0.00 0.00 0.00 0.00 0.00 0.00
0.04 0.03 0.03 0.03 0.05 0.07 0.05 0.01 0.00 0.00 0.00 0.00 0.01 0.01 0.02 0.01 0.01 0.00 0.00 0.00 0.00 0.00 0.00 0.00 0.00 0.00 0.00 0.01 0.00 0.00 0.00 0.00 0.00 0.00 0.00 0.00 0.00 0.00 0.00 0.00 0.00 0.00 0.00 0.00 0.00
0.00 0.01 0.02 0.05 0.05 0.05 0.02 0.00 0.00 0.00 0.00 0.00 0.00 0.01 0.01 0.01 0.00 0.00 0.00 0.00 0.00 0.00 0.00 0.00 0.00 0.00 0.00 0.00 0.00 0.00 0.00 0.00 0.00 0.00 0.00 0.00 0.00 0.00 0.00 0.00 0.00 0.00 0.00 0.00 0.00
0.00 0.01 0.02 0.04 0.01 0.01 0.00 0.00 0.00 0.00 0.00 0.00 0.00 0.00 0.00 0.00 0.00 0.00 0.00 0.00 0.00 0.00 0.00 0.00 0.00 0.00 0.00 0.00 0.00 0.00 0.00 0.00 0.00 0.00 0.00 0.00 0.00 0.00 0.00 0.00 0.00 0.00 0.00 0.00 0.00
0.00 0.01 0.04 0.03 0.00 0.00 0.00 0.00 0.00 0.00 0.00 0.00 0.00 0.00 0.00 0.00 0.01 0.00 0.00 0.00 0.00 0.00 0.00 0.00 0.00 0.00 0.00 0.00 0.00 0.00 0.00 0.00 0.00 0.00 0.00 0.00 0.00 0.00 0.00 0.00 0.00 0.00 0.00 0.00 0.00
0.00 0.00 0.02 0.03 0.00 0.00 0.00 0.00 0.00 0.00 0.00 0.00 0.00 0.00 0.00 0.00 0.00 0.00 0.00 0.00 0.00 0.00 0.00 0.00 0.00 0.00 0.00 0.00 0.00 0.00 0.00 0.00 0.00 0.00 0.00 0.00 0.00 0.00 0.00 0.00 0.00 0.00 0.00 0.00 0.00
0.00 0.00 0.00 0.00 0.00 0.01 0.00 0.00 0.00 0.00 0.00 0.00 0.00 0.00 0.00 0.00 0.00 0.00 0.00 0.00 0.00 0.00 0.00 0.00 0.00 0.00 0.00 0.00 0.00 0.00 0.00 0.00 0.00 0.00 0.00 0.00 0.00 0.00 0.00 0.00 0.00 0.00 0.00 0.00 0.00
0.00 0.00 0.00 0.00 0.00 0.01 0.01 0.01 0.00 0.00 0.00 0.00 0.00 0.00 0.00 0.00 0.00 0.00 0.00 0.00 0.00 0.00 0.00 0.00 0.00 0.00 0.00 0.00 0.00 0.00 0.00 0.00 0.00 0.00 0.00 0.00 0.00 0.00 0.00 0.00 0.00 0.00 0.00 0.00 0.00
0.00 0.00 0.00 0.00 0.00 0.01 0.00 0.00 0.00 0.00 0.00 0.00 0.00 0.00 0.00 0.00 0.00 0.00 0.00 0.00 0.00 0.00 0.00 0.00 0.00 0.00 0.00 0.00 0.00 0.00 0.00 0.00 0.00 0.00 0.00 0.00 0.00 0.00 0.00 0.00 0.00 0.00 0.00 0.00 0.00
MSLP
1010.89 1011.35 1011.78 1012.07 1012.30 1012.72 1013.17 1013.35 1013.69 1014.03 1014.53 1014.99 1015.39 1015.80 1016.48 1016.88 1017.33 1017.41 1016.69 1016.18 1016.14 1016.55 1016.94 1016.67 1016.71 1016.73 1016.92 1017.15 1017.20 1016.47 1015.53 1014.45 1013.57 1012.95 1012.82 1012.85 1013.09 1013.53 1013.89 1014.31 1014.65 1015.39 1016.00 1016.39 1018.05
1010.52 1010.89 1011.39 1011.71 1011.97 1012.39 1012.78 1013.03 1013.50 1013.79 1014.41 1014.80 1015.13 1015.68 1016.45 1016.87 1017.16 1016.69 1016.33 1016.28 1016.41 1016.48 1016.93 1016.77 1016.84 1016.98 1017.21 1017.60 1017.26 1017.38 1015.63 1014.40 1013.62 1013.42 1013.15 1013.10 1013.30 1013.83 1014.15 1014.55 1015.22 1016.11 1016.74 1017.57 1018.49
1010.04 1010.54 1011.01 1011.27 1011.57 1011.99 1012.36 1012.72 1013.14 1013.47 1014.06 1014.50 1014.91 1015.58 1016.38 1016.78 1016.95 1015.50 1015.70 1016.14 1016.37 1016.65 1016.64 1016.90 1016.86 1017.44 1017.77 1017.95 1017.43 1016.85 1015.69 1014.39 1014.18 1014.09 1013.73 1013.54 1013.67 1013.77 1014.25 1014.62 1014.90 1015.77 1016.95 1017.99 1018.78
1009.32 1010.04 1010.57 1010.87 1011.12 1011.54 1011.96 1012.37 1012.83 1013.37 1013.83 1014.37 1014.94 1015.42 1016.27 1016.75 1016.16 1014.61 1014.76 1015.53 1016.30 1016.54 1016.45 1016.62 1016.97 1017.55 1018.01 1018.07 1016.94 1016.87 1015.48 1015.14 1014.65 1014.30 1014.17 1014.31 1014.23 1013.99 1014.26 1014.55 1014.60 1014.89 1016.02 1017.67 1018.67
1008.54 1009.32 1009.92 1010.43 1010.85 1011.24 1011.62 1012.18 1012.72 1013.01 1013.59 1014.03 1014.69 1015.37 1016.43 1016.22 1014.75 1014.58 1014.85 1015.61 1016.30 1016.50 1016.32 1016.38 1016.79 1017.25 1017.43 1017.58 1017.58 1016.97 1015.85 1014.99 1014.81 1014.79 1014.63 1014.86 1014.78 1014.67 1014.41 1014.19 1014.41 1014.88 1015.99 1017.42 1018.39
1007.66 1008.42 1009.15 1009.86 1010.56 1011.10 1011.37 1011.74 1012.23 1012.66 1013.27 1013.81 1014.42 1015.18 1015.75 1015.01 1014.42 1014.33 1015.10 1016.00 1016.12 1016.31 1016.22 1016.02 1016.50 1016.56 1016.66 1016.62 1016.76 1016.51 1015.80 1015.38 1015.19 1015.10 1014.98 1015.04 1015.02 1015.06 1014.54 1014.05 1014.58 1015.33 1016.17 1017.18 1018.02
1007.05 1007.80 1008.52 1009.29 1010.04 1010.66 1011.10 1011.51 1011.94 1012.46 1013.11 1013.66 1014.36 1015.10 1015.17 1014.09 1014.03 1014.42 1014.98 1015.69 1016.00 1016.07 1016.10 1016.03 1015.95 1016.35 1016.40 1016.21 1015.90 1016.22 1016.37 1015.60 1015.53 1015.34 1015.11 1015.09 1015.14 1015.14 1014.74 1014.48 1014.80 1015.37 1015.92 1016.88 1017.56
1006.47 1007.38 1008.10 1008.80 1009.56 1010.23 1010.77 1011.30 1011.91 1012.51 1013.10 1013.50 1014.28 1015.09 1014.55 1014.57 1014.40 1014.35 1014.93 1015.36 1015.95 1016.01 1016.06 1016.26 1016.09 1016.61 1016.84 1016.26 1015.78 1016.10 1016.10 1015.78 1015.25 1015.41 1015.02 1015.15 1014.84 1014.87 1014.83 1014.49 1014.82 1015.02 1015.41 1016.22 1016.94
1006.06 1006.96 1007.76 1008.50 1009.17 1009.84 1010.42 1011.12 1011.85 1012.68 1013.12 1013.69 1014.79 1015.03 1014.54 1014.48 1014.78 1014.25 1014.49 1014.92 1015.64 1015.84 1016.26 1016.47 1016.43 1017.05 1017.53 1017.02 1016.56 1015.94 1015.64 1015.74 1015.15 1014.92 1015.02 1015.31 1014.73 1014.36 1014.07 1014.36 1014.82 1014.80 1014.90 1015.32 1016.10
1005.56 1006.51 1007.36 1008.22 1008.99 1009.56 1010.26 1010.93 1011.81 1012.85 1013.40 1014.00 1014.46 1015.50 1014.39 1013.57 1014.34 1014.54 1014.47 1014.82 1015.40 1015.89 1016.56 1016.76 1017.01 1017.15 1017.44 1016.95 1015.30 1015.66 1015.98 1015.40 1015.27 1014.90 1014.85 1015.16 1014.54 1014.19 1013.97 1014.14 1014.55 1014.63 1014.75 1014.79 1015.07
1004.88 1005.99 1007.00 1007.91 1008.67 1009.24 1010.19 1011.57 1012.63 1013.05 1012.52 1011.75 1012.32 1012.16 1012.31 1012.93 1013.90 1014.41 1014.65 1014.91 1015.32 1015.96 1016.38 1016.72 1016.88 1016.01 1016.26 1016.78 1016.16 1015.74 1015.52 1015.38 1015.02 1014.77 1015.10 1015.06 1014.66 1014.24 1014.16 1014.09 1014.12 1014.37 1014.40 1014.44 1014.45
1004.28 1005.49 1006.56 1007.57 1008.31 1008.92 1009.82 1009.91 1010.08 1009.99 1011.70 1012.28 1012.12 1012.74 1012.55 1012.82 1013.60 1013.89 1014.80 1014.92 1015.16 1015.27 1015.92 1016.73 1015.42 1015.76 1016.33 1016.55 1016.44 1015.99 1015.61 1015.39 1015.45 1015.53 1015.67 1015.32 1014.63 1014.13 1013.85 1013.57 1013.57 1013.75 1013.73 1013.74 1013.93
1003.72 1004.99 1006.17 1007.14 1008.10 1008.86 1009.04 1009.33 1009.59 1009.65 1010.76 1011.65 1011.83 1012.09 1012.50 1013.22 1013.29 1013.48 1014.40 1014.40 1014.89 1014.98 1014.91 1014.66 1013.95 1015.44 1015.66 1015.70 1016.35 1016.08 1015.85 1015.87 1016.13 1016.31 1016.37 1016.12 1015.05 1014.13 1013.48 1013.00 1012.69 1012.70 1012.81 1012.77 1013.07
1003.27 1004.56 1005.81 1006.84 1008.45 1008.29 1008.78 1009.08 1009.23 1009.99 1010.52 1010.44 1011.04 1010.86 1012.25 1012.96 1013.09 1013.26 1013.81 1014.13 1014.79 1014.50 1014.45 1014.30 1014.27 1014.32 1014.81 1015.10 1015.75 1015.71 1016.17 1016.54 1017.00 1017.29 1017.32 1016.74 1015.12 1013.68 1012.94 1012.36 1012.06 1011.87 1012.01 1011.86 1012.05
1002.93 1004.22 1005.42 1006.19 1006.45 1007.48 1008.16 1008.95 1009.73 1010.10 1010.38 1009.41 1009.99 1009.89 1010.53 1012.20 1012.28 1012.86 1013.48 1013.89 1013.61 1013.98 1013.98 1012.68 1012.79 1013.69 1013.84 1013.72 1015.19 1015.81 1016.00 1016.93 1017.79 1018.14 1017.99 1017.40 1016.64 1013.63 1012.92 1011.94 1011.13 1010.72 1010.49 1010.64 1010.97
1002.60 1003.89 1004.98 1006.12 1006.25 1007.09 1007.91 1009.07 1009.76 1010.70 1009.76 1009.33 1009.62 1009.89 1010.81 1011.62 1012.07 1012.89 1013.53 1014.07 1013.57 1014.00 1013.19 1012.81 1012.37 1012.96 1012.81 1014.00 1014.83 1016.13 1016.93 1018.06 1018.85 1019.24 1017.99 1016.99 1016.59 1013.30 1012.44 1011.54 1010.60 1010.01 1009.78 1009.68 1009.92
1002.39 1003.57 1004.73 1005.49 1005.76 1006.41 1007.94 1009.34 1010.29 1010.04 1009.61 1010.07 1009.72 1009.80 1009.93 1010.65 1011.88 1012.39 1012.51 1012.68 1012.95 1013.05 1012.23 1012.83 1012.13 1012.43 1012.78 1013.95 1015.07 1015.93 1016.99 1018.34 1019.16 1019.18 1016.72 1016.01 1015.72 1013.10 1011.50 1010.64 1010.29 1010.10 1009.87 1009.46 1009.11
1002.36 1003.59 1004.62 1005.25 1005.59 1006.41 1007.84 1009.16 1009.53 1008.28 1009.21 1010.02 1010.22 1010.10 1009.84 1010.29 1010.84 1011.36 1012.03 1011.81 1012.25 1012.48 1012.33 1011.76 1012.74 1011.52 1011.91 1012.60 1013.97 1014.70 1015.39 1016.02 1017.31 1017.57 1016.49 1016.02 1013.82 1011.80 1010.83 1009.75 1009.97 1009.63 1009.34 1009.28 1009.25
1002.50 1004.00 1004.84 1005.44 1005.72 1006.57 1007.97 1008.94 1007.82 1007.67 1008.39 1009.34 1010.72 1010.88 1009.92 1010.07 1010.29 1011.32 1011.85 1011.44 1010.86 1010.64 1012.03 1011.10 1012.30 1012.40 1012.08 1012.30 1013.41 1014.82 1014.83 1014.93 1015.96 1016.96 1016.36 1014.70 1013.01 1011.52 1010.44 1009.99 1009.81 1009.70 1009.63 1009.41 1009.41
1002.30 1003.87 1005.25 1005.62 1005.94 1006.78 1007.89 1007.82 1007.83 1007.72 1008.45 1009.13 1009.91 1010.45 1009.77 1009.36 1009.99 1010.28 1010.06 1009.96 1010.91 1009.93 1009.24 1009.88 1012.17 1012.92 1013.08 1012.93 1013.76 1013.76 1014.35 1015.11 1015.56 1016.25 1015.81 1013.79 1012.46 1011.02 1010.26 1009.89 1009.58 1009.53 1009.56 1009.58 1009.41
1002.49 1004.16 1005.63 1005.73 1006.52 1007.49 1007.62 1007.89 1007.96 1007.96 1008.76 1009.81 1010.25 1010.24 1009.94 1009.83 1009.09 1008.76 1008.30 1008.35 1009.12 1009.83 1009.10 1008.91 1010.77 1013.72 1013.55 1012.85 1013.01 1014.09 1013.85 1014.13 1014.62 1014.65 1014.29 1013.53 1011.51 1009.47 1009.52 1009.57 1009.72 1009.86 1010.12 1010.04 1009.90
1002.24 1004.39 1005.82 1006.11 1007.36 1008.18 1007.83 1007.27 1007.57 1008.06 1008.85 1009.90 1010.71 1010.54 1010.82 1010.23 1009.39 1008.38 1007.59 1006.13 1006.44 1007.66 1008.90 1009.45 1010.67 1012.37 1013.03 1012.94 1012.92 1012.70 1012.69 1013.19 1013.46 1013.75 1013.77 1013.30 1011.61 1009.60 1009.51 1009.61 1009.66 1009.94 1010.12 1010.13 1010.20
1003.08 1005.04 1006.33 1006.34 1006.93 1007.39 1007.37 1007.54 1007.64 1007.81 1008.24 1009.07 1009.76 1010.07 1010.30 1010.32 1010.08 1007.25 1006.48 1006.18 1006.55 1006.44 1007.61 1009.27 1009.71 1011.43 1013.20 1014.18 1013.53 1013.07 1012.39 1012.12 1012.62 1013.18 1012.87 1012.96 1010.85 1009.57 1009.54 1009.61 1009.78 1010.10 1010.22 1010.18 1010.25
1002.44 1005.39 1007.07 1007.24 1006.57 1006.94 1007.52 1007.45 1007.50 1007.60 1008.15 1008.62 1008.81 1009.55 1010.23 1009.94 1009.44 1008.37 1005.86 1005.57 1006.03 1005.75 1006.93 1008.24 1008.35 1008.51 1009.10 1009.11 1010.99 1011.65 1011.45 1011.57 1011.97 1012.44 1011.62 1010.82 1010.17 1009.60 1009.41 1009.46 1009.64 1009.67 1009.71 1009.65 1009.78
1001.95 1004.25 1005.07 1006.05 1006.50 1006.84 1007.28 1007.29 1007.25 1007.54 1007.91 1008.67 1008.77 1008.85 1009.21 1009.29 1009.54 1007.36 1005.71 1005.23 1005.44 1005.40 1006.65 1007.50 1007.58 1008.43 1009.02 1009.41 1010.31 1010.51 1010.49 1011.10 1011.42 1010.38 1011.47 1008.93 1009.08 1009.27 1008.81 1008.83 1009.14 1009.33 1009.42 1009.40 1009.52
1002.46 1003.86 1005.44 1005.65 1006.86 1007.35 1007.06 1006.94 1006.95 1007.10 1007.34 1007.70 1007.58 1008.06 1008.58 1008.29 1008.43 1008.14 1006.00 1004.10 1004.26 1005.92 1006.26 1007.20 1007.99 1008.28 1009.77 1008.94 1009.48 1010.25 1010.45 1010.61 1010.43 1009.45 1009.53 1008.46 1008.54 1008.04 1008.28 1008.43 1008.64 1008.74 1008.90 1009.13 1009.48
1003.36 1003.79 1004.31 1005.77 1006.58 1007.01 1006.08 1006.05 1006.02 1006.48 1006.70 1006.57 1007.29 1008.28 1007.49 1005.83 1007.03 1006.97 1006.14 1004.10 1003.75 1004.64 1005.54 1007.01 1007.81 1008.81 1010.01 1009.58 1010.03 1010.41 1009.52 1009.13 1008.61 1009.07 1008.09 1008.35 1006.99 1007.85 1008.16 1008.44 1008.71 1008.93 1009.21 1009.40 1009.60
Thickness
5551 5554 5559 5564 5570 5573 5576 5582 5587 5591 5592 5594 5597 5601 5603 5608 5611 5620 5628 5644 5651 5653 5653 5660 5663 5667 5671 5669 5671 5678 5670 5672 5687 5695 5696 5714 5710 5719 5720 5713 5719 5718 5714 5717 5707
5541 5546 5550 5555 5561 5566 5570 5575 5580 5585 5585 5587 5590 5592 5594 5598 5602 5614 5629 5635 5641 5646 5646 5648 5650 5658 5658 5656 5663 5654 5665 5677 5696 5696 5694 5709 5711 5707 5708 5707 5706 5705 5711 5707 5701
5533 5538 5542 5548 5554 5559 5563 5567 5572 5577 5579 5581 5584 5584 5585 5588 5589 5617 5625 5629 5634 5637 5643 5644 5649 5647 5643 5649 5657 5661 5661 5686 5688 5690 5698 5702 5703 5712 5702 5696 5709 5702 5702 5700 5696
5527 5530 5534 5540 5547 5552 5557 5561 5565 5568 5571 5572 5573 5575 5575 5577 5581 5617 5624 5626 5626 5631 5637 5638 5638 5633 5632 5636 5658 5648 5673 5680 5683 5689 5693 5692 5699 5701 5703 5704 5716 5720 5713 5700 5694
5520 5523 5527 5533 5538 5543 5549 5552 5556 5561 5563 5566 5566 5565 5561 5566 5592 5608 5616 5618 5617 5625 5630 5632 5630 5629 5628 5638 5637 5645 5660 5677 5679 5681 5686 5686 5689 5691 5694 5710 5715 5717 5711 5699 5694
5515 5518 5521 5525 5528 5533 5539 5545 5550 5554 5556 5558 5558 5556 5556 5565 5589 5597 5603 5605 5611 5616 5621 5629 5627 5635 5635 5642 5637 5647 5662 5667 5669 5673 5679 5677 5682 5686 5694 5710 5707 5705 5703 5698 5694
5508 5512 5514 5518 5520 5524 5530 5535 5539 5544 5546 5548 5548 5547 5551 5568 5579 5584 5593 5596 5602 5607 5610 5620 5627 5627 5634 5637 5653 5647 5641 5658 5660 5667 5672 5677 5669 5672 5689 5699 5700 5699 5700 5697 5695
5500 5502 5507 5510 5513 5516 5520 5525 5528 5530 5533 5537 5537 5539 5548 5558 5565 5576 5583 5589 5594 5600 5604 5611 5617 5616 5619 5633 5643 5636 5641 5632 5659 5660 5671 5669 5658 5675 5689 5695 5692 5697 5699 5695 5695
5489 5492 5497 5501 5506 5509 5513 5516 5516 5515 5519 5522 5521 5528 5538 5553 5556 5570 5576 5580 5584 5590 5591 5599 5603 5604 5605 5612 5618 5629 5624 5629 5648 5663 5663 5658 5662 5679 5693 5689 5685 5692 5699 5698 5696
5479 5484 5487 5490 5494 5499 5503 5503 5502 5500 5504 5507 5514 5514 5536 5551 5552 5556 5567 5571 5573 5575 5575 5580 5585 5588 5595 5601 5614 5620 5617 5633 5634 5654 5660 5654 5663 5674 5686 5684 5682 5686 5691 5698 5697
5472 5475 5477 5480 5484 5489 5489 5482 5481 5486 5503 5525 5532 5543 5544 5547 5545 5548 5558 5559 5562 5561 5562 5571 5570 5586 5603 5606 5621 5629 5628 5629 5645 5658 5646 5647 5661 5669 5675 5677 5679 5682 5686 5692 5697
5466 5466 5469 5472 5475 5478 5480 5489 5499 5511 5498 5505 5517 5519 5529 5538 5536 5543 5549 5548 5549 5556 5566 5557 5572 5597 5602 5605 5605 5615 5621 5628 5639 5638 5639 5646 5655 5670 5672 5675 5683 5684 5686 5690 5694
5459 5459 5460 5465 5465 5469 5480 5485 5491 5502 5496 5499 5509 5513 5515 5519 5526 5536 5541 5549 5545 5552 5561 5569 5604 5594 5595 5598 5594 5605 5608 5618 5624 5625 5628 5631 5637 5657 5672 5679 5687 5690 5693 5698 5695
5453 5452 5452 5455 5452 5465 5470 5479 5485 5489 5477 5497 5497 5509 5506 5511 5517 5533 5539 5544 5542 5550 5565 5571 5584 5583 5587 5593 5597 5598 5610 5614 5608 5609 5603 5624 5618 5655 5672 5676 5683 5692 5693 5699 5701
5447 5445 5446 5453 5464 5462 5470 5470 5473 5476 5454 5498 5500 5511 5515 5507 5522 5524 5532 5534 5544 5549 5556 5568 5577 5574 5581 5601 5600 5596 5610 5607 5600 5595 5596 5609 5600 5645 5663 5669 5686 5696 5700 5703 5705
5441 5441 5442 5441 5452 5456 5461 5462 5464 5445 5440 5481 5496 5498 5498 5505 5512 5518 5523 5527 5545 5544 5560 5570 5584 5577 5594 5593 5595 5590 5586 5581 5577 5578 5585 5611 5600 5634 5656 5669 5686 5696 5702 5706 5710
5435 5436 5438 5440 5448 5452 5451 5445 5435 5437 5465 5464 5489 5499 5507 5509 5507 5512 5524 5528 5534 5540 5549 5551 5564 5576 5585 5574 5571 5578 5576 5561 5567 5567 5595 5615 5600 5629 5667 5681 5687 5687 5693 5702 5710
5428 5429 5430 5436 5441 5447 5444 5433 5422 5457 5459 5461 5473 5491 5499 5511 5510 5521 5519 5529 5534 5537 5545 5546 5539 5565 5576 5582 5571 5583 5585 5569 5567 5570 5589 5599 5601 5629 5670 5688 5686 5690 5694 5699 5705
5421 5418 5421 5428 5433 5437 5428 5411 5430 5464 5479 5479 5457 5461 5492 5503 5510 5512 5505 5505 5542 5549 5535 5552 5544 5561 5573 5585 5579 5566 5568 5599 5578 5543 5573 5595 5624 5643 5664 5672 5676 5679 5685 5691 5695
5415 5413 5412 5419 5425 5427 5415 5428 5440 5467 5463 5470 5468 5469 5486 5508 5500 5507 5521 5528 5517 5547 5569 5567 5541 5543 5554 5565 5560 5566 5584 5566 5565 5558 5566 5603 5616 5626 5646 5662 5675 5679 5680 5684 5692
5410 5404 5403 5411 5413 5408 5405 5420 5438 5454 5452 5447 5461 5471 5488 5492 5514 5514 5525 5542 5535 5539 5563 5570 5554 5523 5537 5545 5553 5555 5563 5572 5585 5584 5581 5581 5610 5653 5649 5665 5666 5668 5670 5673 5679
5404 5396 5396 5401 5392 5391 5407 5435 5447 5446 5446 5436 5438 5447 5456 5477 5494 5517 5525 5553 5563 5556 5543 5554 5546 5531 5542 5539 5555 5568 5575 5577 5575 5575 5581 5576 5594 5647 5644 5650 5659 5660 5663 5667 5670
5387 5388 5387 5396 5393 5396 5423 5429 5437 5441 5445 5443 5442 5456 5462 5466 5475 5523 5533 5548 5547 5555 5548 5538 5534 5524 5519 5522 5530 5545 5567 5583 5586 5573 5576 5572 5602 5639 5638 5641 5650 5648 5655 5657 5661
5398 5379 5375 5387 5405 5410 5406 5417 5424 5438 5438 5443 5450 5450 5447 5455 5466 5486 5531 5537 5544 5558 5546 5547 5547 5560 5564 5579 5559 5555 5565 5575 5579 5560 5587 5596 5616 5633 5630 5632 5633 5640 5648 5657 5657
5402 5391 5396 5394 5397 5406 5410 5414 5420 5419 5434 5432 5434 5446 5453 5456 5457 5484 5527 5534 5541 5549 5543 5544 5544 5559 5564 5567 5559 5563 5566 5567 5567 5597 5572 5621 5612 5620 5623 5625 5630 5633 5640 5645 5646
5399 5395 5388 5396 5392 5394 5407 5405 5413 5423 5426 5431 5440 5460 5457 5454 5467 5470 5521 5538 5542 5528 5537 5539 5531 5544 5530 5562 5558 5550 5556 5559 5567 5587 5590 5611 5604 5624 5623 5626 5625 5632 5631 5635 5637
5388 5396 5400 5394 5388 5390 5403 5416 5423 5432 5428 5441 5436 5440 5453 5477 5479 5483 5500 5536 5543 5538 5538 5534 5522 5532 5528 5541 5539 5529 5551 5565 5580 5582 5600 5588 5625 5618 5614 5616 5618 5617 5622 5625 5628